Regional Weather Roundup
Issued by NWS

Home | Current Version | Previous Version | Text Only | Print | Product List | Glossary Off
Versions: 1 2 3 4 5 6 7 8 9 10 11 12 13 14 15 16 17 18 19 20 21 22 23 24 25 26 27

000
ASUS45 KGTF 250610
RWRMT
MONTANA HOURLY WEATHER ROUNDUP
NATIONAL WEATHER SERVICE GREAT FALLS MT
1200 AM MDT SAT APR 25 2015

NOTE: "FAIR" INDICATES FEW OR NO CLOUDS BELOW 12000 FEET WITH NO
SIGNIFICANT WEATHER AND/OR OBSTRUCTIONS TO VISIBILITY.

MTZ001>007-043-250700-
WEST OF THE DIVIDE

CITY           SKY/WX    TMP DP  RH WIND       PRES   REMARKS
KALISPELL      CLOUDY    34  27  75 NE6       29.78S WCI  29
MISSOULA       MOCLDY    37  24  59 N8        29.80S WCI  31
BUTTE          CLOUDY    36  32  85 CALM      29.76S
DEER LODGE       N/A     39  23  52 NW7       29.80S
EUREKA           N/A     39  25  56 CALM      29.80S
HAMILTON         N/A     37  25  60 S2        29.79R
LIBBY            N/A     36  27  69 CALM      29.81S
$$

MTZ008-052>055-250700-
SOUTHWEST MONTANA

CITY           SKY/WX    TMP DP  RH WIND       PRES   REMARKS
BOZEMAN        LGT RAIN  37  34  89 W13       29.75F WCI  29
DILLON         MIX PCPN  35  33  92 CALM      29.75S
$$

MTZ009-010-012-014-046-048-049-054-250700-
EAST SLOPES AND CENTRAL MONTANA

CITY           SKY/WX    TMP DP  RH WIND       PRES   REMARKS
CUT BANK       CLOUDY    38  20  48 W9        29.72S WCI  31
GREAT FALLS    LGT RAIN  41  38  89 E10       29.74R
MALMSTROM AFB  LGT RAIN  41  40  97 SE6       29.75S
HELENA         CLOUDY    43  34  70 E6        29.73S
$$

MTZ011-013-016-021-045-047-050-051-250700-
NORTH CENTRAL MONTANA

CITY           SKY/WX    TMP DP  RH WIND       PRES   REMARKS
HAVRE          CLOUDY    50  36  58 SW9       29.68R
LEWISTOWN      RAIN      42  39  89 N8        29.71R
CHINOOK          N/A     52  37  58 S6        29.66F
FORT BENTON      N/A     46  36  66 CALM      29.74S
$$

MTZ017>020-022>042-056>058-061-062-250700-
EASTERN PLAINS

CITY           SKY/WX    TMP DP  RH WIND       PRES   REMARKS
BAKER          PTCLDY    45  34  65 SE10      29.63S
BILLINGS       MOCLDY    49  40  71 NW21      29.59R
GLASGOW        CLOUDY    53  33  46 N8        29.60S
JORDAN           N/A     52  38  58 N6        29.60S
LIVINGSTON     LGT RAIN  38  50 100 W10       29.71F WCI  31
MILES CITY     MOCLDY    47  44  90 N8        29.57F
SIDNEY         MOCLDY    55  34  44 CALM      29.64S
WOLF POINT     CLOUDY    51  42  71 NE7       29.60R
BIG TIMBER       N/A     39  36  87 SW21      29.67S WCI  29
FORSYTH          N/A     48  46  93 CALM      29.56F
PLENTYWOOD       N/A     52  36  54 E15       29.63F
POPLAR           N/A     54  41  62 E7        29.61S
$$

REGIONAL REPORTS...DAKOTAS

CITY           SKY/WX    TMP DP  RH WIND       PRES   REMARKS
WILLISTON      MOCLDY    53  36  52 SE8       29.65S
MINOT          FAIR      43  37  79 E8        29.74R
DICKINSON      CLEAR     44  36  73 E13       29.64S
BEACH          FAIR      45  32  61 SE8       29.64S
CROSBY         CLOUDY    50  37  62 SE13      29.68S
WATFORD CITY   FAIR      45  32  61 E9        29.64S
BISMARCK       CLEAR     43  40  89 NE8       29.71S
GRAND FORKS    CLOUDY    46  34  62 E9        29.83R
FARGO          CLOUDY    46  37  71 SE14      29.79R
BUFFALO SD       N/A     48  34  58 E14       29.56F
RAPID CITY     PTCLDY    46  41  82 N8        29.62S
$$

REGIONAL REPORTS...WYOMING/IDAHO/WASHINGTON

CITY           SKY/WX    TMP DP  RH WIND       PRES   REMARKS
GILLETTE       MOCLDY    49  39  68 S12       29.64S
SHERIDAN       MOCLDY    52  38  58 S10       29.58S
BUFFALO WY     LGT RAIN  50  42  74 S24G31    29.65F
CODY           CLOUDY    48  37  66 SW6       29.60F
YELLOWSTONE LA   N/A     34  32  92 CALM      29.72F
IDAHO FALLS    LGT RAIN  46  36  68 SW16      29.73R
SALMON         CLOUDY    41  27  56 N3        29.76S
BOISE          CLOUDY    49  31  49 N7        29.77F
SPOKANE        MOCLDY    44  30  57 S7        29.79S
$$

REGIONAL REPORTS...ALBERTA

CITY           SKY/WX    TMP DP  RH WIND       PRES   REMARKS
EDMONTON       CLOUDY    37  27  65 E8        29.83R WCI  31
CALGARY        CLOUDY    36  32  87 N13       29.73S WCI  27
LETHBRIDGE     CLEAR     41  23  48 W23       29.71R
MEDICINE HAT   CLEAR     48  23  37 W13       29.65S
$$

REGIONAL REPORTS...SASKATCHEWAN

CITY           SKY/WX    TMP DP  RH WIND       PRES   REMARKS
SWIFT CURRENT  CLOUDY    41  34  75 E9        29.67F
REGINA         CLOUDY    50  34  53 E13G18    29.69S
SASKATOON      CLOUDY    30  27  86 NE15G23   29.84S WCI  19
$$



USA.gov is the U.S. government's official web portal to all federal, state and local government web resources and services.